This demonstration page uses our WeatherBlox Daily Observations layout. Learn more.

Left ArrowRight Arrow

39.12711, -84.51439

Hourly Observations for December 18, 2018

Temp ( °F °C ) Dew Point ( °F °C ) Humidity (%) Winds ( mph kmh ) Pressure ( in mb ) Visibility ( mi km ) Precip ( " mm )
12:53 am 00:53 Clear 30 -1.1 27 -2.8 88 88 Calm 30.22 1023 9 14 0.00 0.00
1:53 am 01:53 Clear 30 -1.1 28 -2.2 92 92 Calm 30.21 1023 7 11 0.00 0.00
2:53 am 02:53 Clear with Mist and Fog 27 -2.8 26 -3.3 96 96 Calm 30.23 1024 4 6 0.00 0.00
3:53 am 03:53 Clear with Mist and Fog 27 -2.8 24 -4.4 89 89 Calm 30.24 1024 6 10 0.00 0.00
4:14 am 04:14 Clear with Mist and Fog 27 -2.8 25 -3.9 92 92 Calm 30.27 1025 2 2 0.00 0.00
4:24 am 04:24 Clear with Freezing Fog 27 -2.8 25 -3.9 92 92 Calm 30.27 1025 1 1 0.00 0.00
4:35 am 04:35 Mostly Cloudy with Freezing Fog 26 -3.3 24 -4.4 92 92 Calm 30.27 1025 0 0 0.00 0.00
4:53 am 04:53 Mostly Cloudy with Mist and Fog 26 -3.3 24 -4.4 92 92 Calm 30.25 1024 1 1 0.00 0.00
5:16 am 05:16 Clear with Freezing Fog 27 -2.8 25 -3.9 92 92 Calm 30.27 1025 0 0 0.00 0.00
5:24 am 05:24 Mostly Cloudy with Freezing Fog 26 -3.3 25 -3.9 96 96 Calm 30.27 1025 0 0 0.00 0.00
5:31 am 05:31 Mostly Cloudy with Mist and Fog 27 -2.8 25 -3.9 92 92 Calm 30.27 1025 1 2 0.00 0.00
5:33 am 05:33 Clear with Mist and Fog 27 -2.8 25 -3.9 92 92 Calm 30.27 1025 3 4 0.00 0.00
5:40 am 05:40 Clear with Mist and Fog 28 -2.2 26 -3.3 92 92 Calm 30.27 1025 4 6 0.00 0.00
5:48 am 05:48 Clear with Mist and Fog 27 -3 25 -4 93 93 Calm 30.27 1025 1 2 0.00 0.00
5:53 am 05:53 Clear with Mist and Fog 26 -3.3 25 -3.9 96 96 Calm 30.26 1025 1 1 0.00 0.00
6:23 am 06:23 Clear with Mist and Fog 26 -3.3 25 -3.9 96 96 Calm 30.30 1026 1 2 0.00 0.00
6:42 am 06:42 Clear with Mist and Fog 27 -2.8 26 -3.3 96 96 Calm 30.30 1026 3 5 0.00 0.00
6:53 am 06:53 Clear 27 -2.8 26 -3.3 96 96 Calm 30.27 1025 10 16 0.00 0.00
7:53 am 07:53 Sunny 25 -3.9 23 -5 92 92 Calm 30.29 1026 10 16 0.00 0.00
8:53 am 08:53 Sunny 29 -1.7 27 -2.8 92 92 Calm 30.30 1026 10 16 0.00 0.00
9:53 am 09:53 Sunny 33 0.6 30 -1.1 89 89 Calm 30.30 1026 10 16 0.00 0.00
10:53 am 10:53 Sunny 36 2.2 30 -1.1 79 79 Calm 30.30 1026 10 16 0.00 0.00
11:53 am 11:53 Sunny 39 3.9 31 -0.6 73 73 Calm 30.27 1025 10 16 0.00 0.00
12:53 pm 12:53 Sunny 42 5.6 30 -1.1 62 62 S 7 11 30.24 1024 10 16 0.00 0.00
1:53 pm 13:53 Sunny 45 7.2 30 -1.1 56 56 Calm 30.22 1023 10 16 0.00 0.00
2:53 pm 14:53 Sunny 45 7.2 28 -2.2 52 52 Calm 30.20 1023 10 16 0.00 0.00
3:53 pm 15:53 Sunny 44 6.7 29 -1.7 55 55 Calm 30.19 1022 10 16 0.00 0.00
4:53 pm 16:53 Sunny 43 6.1 27 -2.8 53 53 Calm 30.19 1022 10 16 0.00 0.00
5:53 pm 17:53 Clear 38 3.3 31 -0.6 76 76 Calm 30.18 1022 10 16 0.00 0.00
6:53 pm 18:53 Clear 34 1.1 30 -1.1 85 85 Calm 30.19 1022 10 16 0.00 0.00
7:53 pm 19:53 Clear 33 0.6 30 -1.1 89 89 Calm 30.20 1023 10 16 0.00 0.00
8:53 pm 20:53 Clear 31 -0.6 28 -2.2 89 89 Calm 30.19 1022 10 16 0.00 0.00
9:53 pm 21:53 Clear 28 -2.2 26 -3.3 92 92 NE 3 6 30.17 1022 7 11 0.00 0.00
10:53 pm 22:53 Clear with Mist and Fog 27 -2.8 25 -3.9 92 92 Calm 30.16 1021 4 6 0.00 0.00
11:25 pm 23:25 Clear with Mist and Fog 29 -1.7 28 -2.2 96 96 Calm 30.18 1022 2 3 0.00 0.00
11:34 pm 23:34 Clear with Mist and Fog 28 -2.2 26 -3.3 92 92 Calm 30.18 1022 1 1 0.00 0.00
11:40 pm 23:40 Clear with Mist and Fog 28 -2.2 27 -2.8 96 96 Calm 30.18 1022 2 3 0.00 0.00
11:53 pm 23:53 Clear 29 -1.7 27 -2.8 92 92 Calm 30.15 1021 9 14 0.00 0.00

Powered by AerisWeather